Location: Riverton
(43.0250°N, 108.3790°W)
Time: 22:16:10
(UTC-06:00)

JAS-2 - Visible Passes

Search period start: 01 August 2015 00:00
Search period end: 11 August 2015 00:00
Orbit: 801 x 1321 km, 98.5° (Epoch: 31 July)

Date Brightness Start Highest point End Pass type
(mag) Time Alt. Az. Time Alt. Az. Time Alt. Az.
01 Aug 10.8 04:00:41 10° NNE 04:08:14 50° E 04:15:45 10° S visible
02 Aug 12.0 03:06:56 10° NE 03:12:34 22° E 03:18:27 10° SE visible
02 Aug 10.2 04:50:36 10° NNE 04:58:29 82° WNW 05:06:14 10° SSW visible
03 Aug 10.9 03:55:53 10° NNE 04:03:24 47° E 04:10:47 10° S visible
04 Aug 12.0 03:02:17 10° NE 03:07:39 21° E 03:13:17 10° SE visible
04 Aug 10.1 04:45:45 10° NNE 04:53:41 86° WNW 05:01:23 10° SSW visible
05 Aug 11.0 03:51:06 10° NNE 03:58:33 45° E 04:05:48 10° SSE visible
05 Aug 10.6 05:36:11 10° N 05:43:31 44° WNW 05:50:37 10° SW visible
06 Aug 12.1 02:57:39 10° NE 03:02:44 19° E 03:08:05 10° SE visible
06 Aug 10.1 04:40:55 10° NNE 04:48:52 90° NNW 04:56:30 10° SSW visible
07 Aug 11.1 03:46:20 10° NNE 03:53:41 42° E 04:00:48 10° SSE visible
07 Aug 10.6 05:31:19 10° N 05:38:44 46° WNW 05:45:51 10° SW visible
08 Aug 12.1 02:53:03 10° NE 02:57:48 18° E 03:02:50 10° SE visible
08 Aug 10.2 04:36:05 10° NNE 04:44:03 86° ESE 04:51:37 10° SSW visible
09 Aug 11.2 03:41:34 10° NNE 03:48:49 40° E 03:55:47 10° SSE visible
09 Aug 10.5 05:26:26 10° N 05:33:57 48° WNW 05:41:04 10° SW visible
10 Aug 12.2 02:48:30 10° NE 02:52:52 16° E 02:57:32 10° ESE visible
10 Aug 10.2 04:31:17 10° NNE 04:39:14 82° ESE 04:46:42 10° SSW visible
